Miscellaneous Local Product
Issued by NWS Hastings, NE

Home | Current Version | Previous Version | Graphics & Text | Print | Product List | Glossary On
Versions: 1 2 3 4 5 6 7 8 9 10 11 12 13 14 15 16 17 18 19 20 21 22 23 24 25 26 27 28 29 30 31 32 33 34 35 36 37 38 39 40 41 42 43 44 45 46 47 48 49 50
550
AXUS43 KGID 110102
MISGRI

GID CWA HOURLY WEATHER ROUNDUP
NATIONAL WEATHER SERVICE HASTINGS NE
700 PM CST SAT DEC 10 2016

NOTE: "FAIR" INDICATES FEW OR NO CLOUDS BELOW 12,000 FEET WITH NO
SIGNIFICANT WEATHER AND/OR OBSTRUCTIONS TO VISIBILITY.

...SOUTH CENTRAL NEBRASKA...

CITY           SKY/WX    TMP DP  RH WIND       PRES   REMARKS
GRAND ISLAND   CLOUDY    30  21  69 S10       29.86F WCI  21
HASTINGS       CLOUDY    31  21  66 SE9       29.87F WCI  23
KEARNEY        CLOUDY    30  21  69 SE9       29.84F WCI  22
ORD            CLOUDY    30  19  63 SE10      29.81F WCI  21
YORK           CLOUDY    28  19  69 SE10      29.90F WCI  19
AURORA         CLOUDY    30  20  67 SE8       29.87F WCI  22
LEXINGTON      CLOUDY    31  23  74 S7        29.81F WCI  24
HOLDREGE       CLOUDY    31  24  73 S8        29.81F WCI  24
HEBRON         CLOUDY    31  22  67 SE7       29.92F WCI  25

...NEBRASKA PANHANDLE...

CITY           SKY/WX    TMP DP  RH WIND       PRES   REMARKS
CHADRON        CLOUDY     8   4  83 SE6       29.69F WCI  -2
ALLIANCE       CLOUDY    28  23  81 S7        29.65F WCI  21
SCOTTSBLUFF    CLOUDY    27  20  75 SE6       29.67F WCI  20
SIDNEY         CLOUDY    28  23  81 CALM      29.70F

...WESTERN AND NORTH CENTRAL NEBRASKA...

CITY           SKY/WX    TMP DP  RH WIND       PRES   REMARKS
VALENTINE      CLOUDY    14  11  87 NE3       29.77F
AINSWORTH      CLOUDY    23  21  89 E5        29.78S WCI  17
ONEILL         CLOUDY    28  21  76 SE10      29.84F WCI  18
BROKEN BOW     CLOUDY    30  22  72 S8        29.79F WCI  22
IMPERIAL       CLOUDY    27  23  85 S3        29.76S
NORTH PLATTE   CLOUDY    29  21  72 CALM      29.79S
MCCOOK         CLOUDY    29  24  82 E5        29.79F WCI  24

...EASTERN NEBRASKA...

CITY           SKY/WX    TMP DP  RH WIND       PRES   REMARKS
NORFOLK        CLOUDY    26  18  71 SE12      29.91F WCI  16
SO SIOUX CITY  CLOUDY    27  20  75 SE14      30.02F WCI  16
TEKAMAH        CLOUDY    28  20  71 SE14      30.01F WCI  17
COLUMBUS       CLOUDY    30  18  59 SE9       29.93F WCI  22
ALBION         PTCLDY    28  19  69 SE12      29.87F WCI  18
OMAHA EPPLEY   CLOUDY    31  17  56 SE16      30.02F WCI  20
OFFUTT AFB     CLOUDY    32  18  56 SE13      30.01F WCI  22
MILLARD        CLOUDY    33  19  56 SE13      30.00F WCI  24
LINCOLN        CLOUDY    32  19  58 SE12      29.97F WCI  23
NEBRASKA CITY  CLOUDY    32  16  51 SE12G17   30.00F WCI  23
BEATRICE       CLOUDY    33  22  64 SE10      29.95F WCI  25
FALLS CITY     CLOUDY    34  21  59 SE9       30.01F WCI  27

...NORTHERN KANSAS...

CITY           SKY/WX    TMP DP  RH WIND       PRES   REMARKS
GOODLAND       CLOUDY    31  25  78 S12       29.72F WCI  22
HILL CITY      CLOUDY    33  24  69 SE6       29.81F WCI  28
NORTON         CLEAR     30  21  69 E6        29.79F WCI  24
PHILLIPSBURG   CLEAR     34  25  69 E8        29.84F WCI  27
SMITH CENTER   CLEAR     30  23  74 SE8       29.87F WCI  23
BELOIT         CLEAR     36  23  60 E8        29.89F WCI  29
HAYS           CLOUDY    34  25  69 SE9       29.83F WCI  27
RUSSELL        CLOUDY    35  25  66 S14       29.83F WCI  26
CONCORDIA      CLOUDY    35  23  61 SE8       29.92F WCI  29
SALINA         CLOUDY    38  24  57 S12       29.92F WCI  30
TOPEKA         CLOUDY    36  21  54 SE8       30.02F WCI  30



USA.gov is the U.S. government's official web portal to all federal, state and local government web resources and services.